Flag for United Kingdom Weather past 2 weeks in Norwich, England, United Kingdom

Now
63 °F

Passing clouds.


Feels Like: 63 °F
Forecast: 60 / 72 °F
Wind: 3 mph from Northeast

Location: Norwich Weather Centre

Current Time: Sep 17, 2014 at 9:15:14 PM

Latest Report: Sep 17, 2014 at 8:50 PM


Visibility: 2 mi

Pressure: 29.89 "Hg

Humidity: 83%

Dew point: 57 °F

Location of NorwichLocation

Historic Weather in Norwich — Graph

°F

Norwich temperature yesterday

Maximum temperature yesterday: 70 °F (at 1:20 PM)
Minimum temperature yesterday: 55 °F (at 12:20 AM)
Average temperature yesterday: 62 °F

Past Weeks' High & Low Weather Summary

 TemperatureHumidityPressure
High70 °F (Sep 3, 2:20 PM)100% (Sep 2, 10:50 PM)30.36 "Hg (Sep 2, 10:50 PM)
Low45 °F (Sep 8, 4:50 AM)56% (Sep 7, 12:50 PM)29.89 "Hg (Sep 17, 2:20 PM)
Average60 °F89%30.13 "Hg
* Reported Sep 2 7:20 PM — Sep 17 7:50 PM, Norwich, Weather by CustomWeather, © 2014

Note: Actual official high and low records may vary slightly from our data, if they occured in-between our weather recording intervals... More about our weather records

Advertising

Norwich weather history for previous 24 hours

 ConditionsComfort  
Time TempWeatherWind HumidityBarometerVisibility
7:50 PM
Sep 17
63 °FPartly sunny.5 mph83%29.89 "Hg2 mi
7:20 PM63 °FPartly sunny.6 mph83%29.89 "Hg2 mi
6:50 PM63 °FPartly sunny.6 mph88%29.89 "Hg3 mi
6:20 PM64 °FPartly sunny.6 mph83%29.89 "Hg4 mi
5:50 PM64 °FPartly sunny.6 mph83%29.89 "Hg4 mi
5:20 PM64 °FPartly sunny.6 mph88%29.89 "Hg4 mi
4:50 PM66 °FPartly sunny.6 mph83%29.89 "Hg4 mi
4:20 PM66 °FScattered clouds.6 mph83%29.89 "Hg4 mi
3:50 PM66 °FBroken clouds.6 mph83%29.89 "Hg4 mi
3:20 PM66 °FBroken clouds.7 mph83%29.89 "Hg4 mi
2:50 PM64 °FBroken clouds.6 mph88%29.89 "Hg4 mi
2:20 PM64 °FPartly sunny.5 mph88%29.89 "Hg3 mi
1:50 PM64 °FPartly sunny.7 mph88%29.92 "Hg2 mi
1:20 PM64 °FPartly sunny.6 mph88%29.92 "Hg2 mi
12:50 PM64 °FFog.6 mph94%29.92 "Hg2 mi
12:20 PM61 °FFog.6 mph100%29.92 "Hg2 mi
11:50 AM61 °FFog.7 mph100%29.92 "Hg1 mi
11:20 AM61 °FFog.7 mph100%29.92 "Hg1 mi
10:50 AM61 °FFog.6 mph100%29.95 "Hg1 mi
10:20 AM61 °FFog.6 mph100%29.95 "Hg1 mi
9:50 AM61 °FFog.7 mph100%29.95 "Hg1 mi
9:20 AM61 °FFog.7 mph100%29.95 "Hg1 mi
8:50 AM61 °FFog.8 mph100%29.95 "Hg1 mi
8:20 AM61 °FFog.6 mph100%29.95 "Hg1 mi
7:50 AM61 °FFog.7 mph100%29.95 "Hg1 mi
7:20 AM61 °FFog.5 mph100%29.95 "Hg1 mi
6:50 AM61 °FLow clouds.5 mph100%29.95 "Hg1 mi
6:20 AM61 °FMostly cloudy.5 mph100%29.95 "Hg1 mi
5:50 AM61 °FMostly cloudy.5 mph100%29.95 "Hg1 mi
5:20 AM61 °FLow clouds.5 mphN/A29.95 "Hg1 mi
4:50 AM61 °FLow clouds.5 mphN/A29.95 "Hg1 mi
4:20 AM61 °FPassing clouds.5 mphN/A29.95 "Hg1 mi
3:50 AM61 °FPassing clouds.3 mphN/A29.95 "Hg1 mi
3:20 AM61 °FPartly cloudy.2 mphN/A29.95 "Hg1 mi
2:50 AM61 °FPassing clouds.1 mphN/A29.98 "Hg2 mi
2:20 AM61 °FPartly cloudy.3 mphN/A29.98 "Hg1 mi
1:50 AM63 °FPartly cloudy.3 mphN/A29.98 "Hg2 mi
1:20 AM63 °FPassing clouds.2 mphN/A29.98 "Hg2 mi
12:50 AM63 °FLow clouds.5 mphN/A29.98 "Hg2 mi
12:20 AM63 °FLow clouds.3 mphN/A29.98 "Hg2 mi
11:50 PM
Sep 16
63 °FLow clouds.5 mphN/A29.98 "Hg2 mi
11:20 PM63 °FLow clouds.3 mphN/A29.98 "Hg2 mi
10:50 PM63 °FPassing clouds.1 mphN/A30.01 "Hg2 mi
10:20 PM63 °FPassing clouds.3 mph83%30.01 "Hg2 mi
9:50 PM63 °FPassing clouds.7 mph83%30.01 "Hg2 mi
9:20 PM63 °FPassing clouds.7 mph83%30.01 "Hg2 mi
Weather by CustomWeather, © 2014

See weather overviewHow to use our weather pages